Overview Statistics Trail Chart Weather Telemetry Raw packets
 

This is the latest recevied weather packets stored in our database for station/object YO3FNC-10. If no packets are shown the sender has not sent any weather packets the latest 10 day(s).

<< 32 33 34 35 36 37 38 >>
Time Temp. Humidity Pressure Rain* Wind** Luminosity Snow
1787808536 29.44° C 42% 1019.5 hPa - - - -
1787807636 28.89° C 43% 1019.3 hPa - - - -
1787806736 28.33° C 45% 1019 hPa - - - -
1787805836 27.78° C 45% 1019 hPa - - - -
1787804936 27.78° C 45% 1018.9 hPa - - - -
1787804033 28.89° C 43% 1018.9 hPa - - - -
1787803132 30° C 42% 1019 hPa - - - -
1787802232 30° C 42% 1018.9 hPa - - - -
1787801332 30° C 42% 1018.9 hPa - - - -
1787800432 30° C 41% 1018.8 hPa - - - -
1787799532 30° C 42% 1018.8 hPa - - - -
1787798632 29.44° C 43% 1018.7 hPa - - - -
1787797731 29.44° C 42% 1018.7 hPa - - - -
1787796831 29.44° C 42% 1018.8 hPa - - - -
1787795931 29.44° C 42% 1018.7 hPa - - - -
1787795031 30° C 43% 1018.8 hPa - - - -
1787794131 30° C 43% 1018.5 hPa - - - -
1787793230 30° C 43% 1018.5 hPa - - - -
1787792330 30° C 43% 1018.6 hPa - - - -
1787791430 30° C 42% 1018.6 hPa - - - -
1787790530 30° C 43% 1018.6 hPa - - - -
1787789630 29.44° C 43% 1018.7 hPa - - - -
1787788730 29.44° C 44% 1018.6 hPa - - - -
1787787830 29.44° C 43% 1018.3 hPa - - - -
1787786930 29.44° C 44% 1018.4 hPa - - - -

* Rain since midnight (hover to see other rain measurements)
** Current wind speed in m/s (hover to see current wind gust speed)